Regional Weather Roundup
Issued by NWS Jackson, KY

Home | Current Version | Previous Version | Graphics & Text | Print | Product List | Glossary On
Versions: 1 2 3 4 5 6 7 8 9 10 11 12 13 14 15 16 17 18 19 20 21 22 23 24 25 26 27 28 29 30 31 32 33 34 35 36 37 38 39 40 41 42 43 44 45 46 47 48 49 50
760
ASUS43 KJKL 120610
RWRJKL

EAST KENTUCKY HOURLY WEATHER ROUNDUP
NATIONAL WEATHER SERVICE JACKSON KY
100 AM EST FRI FEB 12 2016

NOTE: "FAIR" INDICATES FEW OR NO CLOUDS BELOW 12,000 FEET WITH
NO SIGNIFICANT WEATHER AND/OR OBSTRUCTIONS TO VISIBILITY.

* THESE REPORTS ARE NOT UNDER NWS QUALITY CONTROL AND MAY NOT
  REPORT WEATHER SUCH AS PRECIPITATION AND FOG.

KYZ079-080-083-085-087-088-110-112-115-119-120-120700
...EASTERN KENTUCKY...

CITY           SKY/WX    TMP DP  RH WIND       PRES   REMARKS
JACKSON        PTCLDY    21   7  54 NE3       30.21F
6HR MIN TEMP:  21; 6HR MAX TEMP:  25;

LONDON         CLOUDY    26  10  50 NE3       30.21F
6HR MIN TEMP:  25; 6HR MAX TEMP:  28;

SOMERSET*      MOCLDY    27  14  59 CALM      30.25F
MONTICELLO*    CLOUDY    28  18  66 NW8       30.24S WCI  20
6HR MIN TEMP:  24; 6HR MAX TEMP:  29;

WILLIAMSBURG*  CLOUDY    27  10  50 N3        30.21F
MIDDLESBORO*   CLOUDY    28  21  75 CALM      30.22F
6HR MIN TEMP:  26; 6HR MAX TEMP:  29;

HARLAN APT*    MOCLDY    27  18  69 CALM      30.18F
HAZARD APT*    CLEAR     19   9  63 CALM      30.22F
BLACK MTN*       N/A     19  16  86 SW14        N/A  WCI   6
BIG SANDY*     CLOUDY    20   9  63 NE5       30.23F WCI  13
6HR MIN TEMP:  20; 6HR MAX TEMP:  26;

MOREHEAD APT*  CLOUDY    21   5  49 CALM      30.27F
$$

KYZ035-036-041-042-044-050-067-078-099-120700
...CENTRAL KENTUCKY...

CITY           SKY/WX    TMP DP  RH WIND       PRES   REMARKS
MT STERLING*   CLOUDY    23  12  63 E3        30.26F
DANVILLE*      MOCLDY    25  16  68 CALM      30.24F
RICHMOND*      CLOUDY    25  14  63 E5        30.22F WCI  19
LEXINGTON      CLOUDY    22  12  65 CALM      30.24F
6HR MIN TEMP:  22; 6HR MAX TEMP:  26;

FRANKFORT      CLOUDY    22  10  60 E5        30.24F WCI  16
6HR MIN TEMP:  22; 6HR MAX TEMP:  26;

$$

KYZ091>093-OHZ055-061-077-WVZ005-015-034-035-042-120700
...SOUTHERN OHIO/WEST VIRGINIA...

CITY           SKY/WX    TMP DP  RH WIND       PRES   REMARKS
COVINGTON      CLOUDY    19   8  62 S5        30.25F WCI  12
COLUMBUS       CLOUDY    11   6  81 SE3       30.27F
DAYTON         CLOUDY    13   6  74 CALM      30.25F
WILMINGTON     CLOUDY     9   3  77 CALM      30.24F
HUNTINGTON       N/A     18   4  54 E5        30.27F WCI  11
CHARLESTON       N/A     15   8  73 CALM      30.27F
PINEVILLE*       N/A     19  11  70 MISG      30.24F
BECKLEY        MOCLDY    14   4  64 CALM      30.14F
$$

VAZ002-007-008-TNZ017-027-036-066-071-120700
...SOUTHWEST VIRGINIA/EAST TENNESSEE...

CITY           SKY/WX    TMP DP  RH WIND       PRES   REMARKS
BRISTOL        CLOUDY    26  19  74 CALM      30.20F
KNOXVILLE      CLOUDY    31  19  61 NE7       30.20F WCI  24
OAK RIDGE      CLOUDY    32  17  54 N3        30.22F
CROSSVILLE     CLOUDY    29  18  63 E3        30.14F
NASHVILLE      CLOUDY    34  19  54 E5        30.24S WCI  30
$$

...KEY TO REMARKS...
VSB - VISIBILITY IN MILES
WCI - WIND CHILL INDEX
HX  - HEAT INDEX

$$




USA.gov is the U.S. government's official web portal to all federal, state and local government web resources and services.